Location: Canazei
(46.4667°N, 11.7667°E)
Time: 04:45:39
(UTC+00:00)

GP-B - Pass Details

Date: 21 April 2021
Orbit: 631 x 635 km, 89.8° (Epoch: 10 May)

Event Time Altitude Azimuth Distance (km) Brightness Sun altitude
Rises 03:18:40 0° 0° (N) 2,938 7.0 -9.8°
Reaches altitude 10° 03:20:54 10° 360° (N) 2,025 6.1 -9.4°
Maximum altitude 03:25:21 81° 273° (W) 646 3.1 -8.7°
Drops below altitude 10° 03:29:46 10° 187° (S) 2,006 5.4 -8.1°
Sets 03:31:58 0° 186° (S) 2,909 6.2 -7.7°
